Location: Guadalupe River State Park
(29.8761°N, 98.5041°W)
Time: 07:37:47
(UTC-06:00)

ISS - Visible Passes

Search period start: 14 November 2019 00:00
Search period end: 24 November 2019 00:00
Orbit: 412 x 421 km, 51.6° (Epoch: 14 November)

Date Brightness Start Highest point End Pass type
(mag) Time Alt. Az. Time Alt. Az. Time Alt. Az.
14 Nov -3.8 05:47:21 34° WNW 05:48:35 64° SW 05:51:54 10° SE visible
15 Nov -2.0 05:01:33 32° ESE 05:01:33 32° ESE 05:03:32 10° SE visible
16 Nov -1.8 05:48:44 16° SW 05:48:44 16° SW 05:50:32 10° SSW visible
16 Nov -1.0 19:11:20 10° SSE 19:11:20 10° SSE 19:11:20 10° SSE visible
17 Nov -0.8 05:03:01 10° SSE 05:03:01 10° SSE 05:03:06 10° SSE visible
17 Nov -0.4 19:58:19 10° SW 19:58:31 11° SW 19:58:31 11° SW visible
18 Nov -3.3 19:09:55 10° SW 19:12:41 53° S 19:12:41 53° S visible
19 Nov -2.7 18:21:55 10° SSW 18:24:52 29° SE 18:26:45 17° ENE visible
19 Nov -0.4 19:59:11 10° W 19:59:41 12° WNW 19:59:41 12° WNW visible
20 Nov -2.4 19:10:01 10° WSW 19:13:04 32° NW 19:13:38 30° NNW visible
21 Nov -3.5 18:21:17 10° SW 18:24:35 65° NW 18:27:30 13° NE visible
22 Nov -1.0 19:11:43 10° WNW 19:13:08 12° NW 19:14:11 11° NNW visible
23 Nov -1.5 18:21:57 10° W 18:24:29 20° NW 18:27:02 10° NNE visible
